TAP4567 LPFR-LXGB

Flight info

Callsign TAP4567
Flight time 0h 31m
Altitude 25000
Route NIRAK Y136 NAPES/N0382F180 N747 SVL/N0377F170 M744 MAR N864 PIMOS
Aircraft A20N/M-SDE2E3FGHIRWXY/LB1

Departure

Time 2026-05-05 19:21
Airport Faro - Gago Coutinho International Airport (LPFR)

Arrival

Time 2026-05-05 19:53
Airport Gibraltar Airport (LXGB)
Time Latitude Longitude Altitude Speed Heading
2026-05-05 18:55 37.01904 -7.96773 29 ft 0 kts 10°
2026-05-05 19:07 37.01898 -7.96774 29 ft 2 kts 10°
2026-05-05 19:08 37.01879 -7.96779 29 ft 3 kts 13°
2026-05-05 19:08 37.01859 -7.96786 29 ft 3 kts 19°
2026-05-05 19:08 37.01841 -7.96795 29 ft 3 kts 36°
2026-05-05 19:08 37.01828 -7.96811 29 ft 3 kts 82°
2026-05-05 19:09 37.01827 -7.96819 29 ft 1 kts 101°
2026-05-05 19:09 37.01826 -7.96811 29 ft 0 kts 101°
2026-05-05 19:09 37.01829 -7.96836 29 ft 6 kts 99°
2026-05-05 19:10 37.01840 -7.96902 29 ft 9 kts 101°
2026-05-05 19:10 37.01848 -7.96953 29 ft 0 kts 101°
2026-05-05 19:13 37.01847 -7.96948 29 ft 2 kts 101°
2026-05-05 19:13 37.01829 -7.96906 29 ft 9 kts 136°
2026-05-05 19:13 37.01747 -7.96899 29 ft 12 kts 189°
2026-05-05 19:14 37.01699 -7.96906 29 ft 9 kts 177°
2026-05-05 19:14 37.01666 -7.96863 29 ft 8 kts 107°
2026-05-05 19:14 37.01654 -7.96780 29 ft 12 kts 99°
2026-05-05 19:14 37.01638 -7.96664 28 ft 15 kts 99°
2026-05-05 19:15 37.01623 -7.96557 28 ft 13 kts 99°
2026-05-05 19:15 37.01604 -7.96426 28 ft 17 kts 100°
2026-05-05 19:15 37.01581 -7.96265 28 ft 19 kts 101°
2026-05-05 19:15 37.01557 -7.96102 27 ft 20 kts 99°
2026-05-05 19:16 37.01536 -7.95952 27 ft 11 kts 101°
2026-05-05 19:16 37.01511 -7.95852 26 ft 12 kts 132°
2026-05-05 19:16 37.01442 -7.95843 26 ft 8 kts 192°
2026-05-05 19:16 37.01430 -7.95846 26 ft 0 kts 193°
2026-05-05 19:19 37.01409 -7.95852 26 ft 7 kts 192°
2026-05-05 19:20 37.01347 -7.95904 27 ft 14 kts 258°
2026-05-05 19:20 37.01352 -7.95953 27 ft 0 kts 281°
2026-05-05 19:20 37.01360 -7.96005 27 ft 23 kts 280°
2026-05-05 19:21 37.01399 -7.96278 28 ft 70 kts 280°
2026-05-05 19:21 37.01520 -7.97124 30 ft 125 kts 280°
2026-05-05 19:21 37.01663 -7.98244 483 ft 130 kts 282°
2026-05-05 19:21 37.01828 -7.99429 884 ft 147 kts 284°
2026-05-05 19:22 37.02033 -8.00767 1218 ft 167 kts 285°
2026-05-05 19:22 37.02263 -8.02245 1585 ft 181 kts 285°
2026-05-05 19:22 37.02503 -8.03858 1851 ft 201 kts 284°
2026-05-05 19:22 37.02757 -8.05607 2548 ft 206 kts 285°
2026-05-05 19:23 37.03012 -8.07419 3395 ft 213 kts 281°
2026-05-05 19:23 37.02879 -8.09292 4222 ft 227 kts 254°
2026-05-05 19:23 37.02019 -8.10966 5174 ft 234 kts 221°
2026-05-05 19:23 37.00566 -8.11863 6142 ft 237 kts 189°
2026-05-05 19:24 36.98933 -8.11668 7011 ft 241 kts 156°
2026-05-05 19:24 36.97592 -8.10435 7841 ft 244 kts 126°
2026-05-05 19:24 36.96779 -8.08556 8596 ft 254 kts 113°
2026-05-05 19:24 36.96044 -8.06434 9060 ft 278 kts 107°
2026-05-05 19:25 36.95630 -8.03983 9563 ft 298 kts 98°
2026-05-05 19:25 36.95290 -8.01402 10351 ft 306 kts 98°
2026-05-05 19:25 36.94934 -7.98671 10741 ft 330 kts 98°
2026-05-05 19:25 36.94544 -7.95739 11094 ft 352 kts 99°
2026-05-05 19:26 36.94126 -7.92681 11806 ft 360 kts 99°
2026-05-05 19:26 36.93697 -7.89579 12643 ft 365 kts 99°
2026-05-05 19:26 36.93259 -7.86436 13457 ft 370 kts 99°
2026-05-05 19:26 36.92812 -7.83238 14222 ft 375 kts 99°
2026-05-05 19:27 36.92360 -7.80013 14988 ft 379 kts 99°
2026-05-05 19:27 36.91904 -7.76751 15708 ft 383 kts 99°
2026-05-05 19:27 36.91441 -7.73452 16425 ft 388 kts 100°
2026-05-05 19:27 36.90972 -7.70115 17146 ft 392 kts 100°
2026-05-05 19:28 36.90496 -7.66738 17859 ft 397 kts 100°
2026-05-05 19:28 36.90015 -7.63323 18502 ft 402 kts 100°
2026-05-05 19:28 36.89527 -7.59874 19110 ft 405 kts 100°
2026-05-05 19:28 36.89033 -7.56389 19729 ft 409 kts 100°
2026-05-05 19:29 36.88534 -7.52871 20336 ft 413 kts 100°
2026-05-05 19:29 36.88029 -7.49325 20933 ft 417 kts 100°
2026-05-05 19:29 36.87518 -7.45742 21541 ft 421 kts 100°
2026-05-05 19:29 36.87002 -7.42124 22116 ft 425 kts 100°
2026-05-05 19:30 36.86479 -7.38474 22708 ft 429 kts 100°
2026-05-05 19:30 36.85951 -7.34791 23280 ft 433 kts 101°
2026-05-05 19:30 36.85417 -7.31075 23814 ft 437 kts 101°
2026-05-05 19:30 36.84878 -7.27329 24288 ft 440 kts 101°
2026-05-05 19:31 36.84333 -7.23554 24729 ft 444 kts 101°
2026-05-05 19:31 36.83781 -7.19739 24937 ft 447 kts 101°
2026-05-05 19:31 36.83228 -7.15920 24983 ft 448 kts 101°
2026-05-05 19:31 36.82673 -7.12098 24996 ft 447 kts 101°
2026-05-05 19:32 36.82116 -7.08279 24988 ft 447 kts 101°
2026-05-05 19:32 36.81567 -7.04513 24991 ft 447 kts 101°
2026-05-05 19:32 36.81000 -7.00643 24994 ft 448 kts 101°
2026-05-05 19:32 36.80448 -6.96874 24984 ft 448 kts 101°
2026-05-05 19:33 36.79886 -6.93054 24983 ft 448 kts 101°
2026-05-05 19:33 36.79323 -6.89238 24979 ft 448 kts 101°
2026-05-05 19:33 36.78758 -6.85412 24989 ft 448 kts 101°
2026-05-05 19:33 36.78193 -6.81593 24992 ft 448 kts 101°
2026-05-05 19:34 36.77626 -6.77771 24990 ft 448 kts 101°
2026-05-05 19:34 36.77058 -6.73952 24987 ft 448 kts 101°
2026-05-05 19:34 36.76488 -6.70127 24983 ft 448 kts 101°
2026-05-05 19:35 36.75345 -6.62482 24987 ft 448 kts 101°
2026-05-05 19:35 36.74772 -6.58662 24987 ft 449 kts 101°
2026-05-05 19:35 36.74196 -6.54833 24987 ft 449 kts 101°
2026-05-05 19:35 36.73620 -6.51011 24994 ft 449 kts 101°
2026-05-05 19:36 36.73043 -6.47188 24993 ft 449 kts 101°
2026-05-05 19:36 36.72463 -6.43361 24984 ft 449 kts 101°
2026-05-05 19:36 36.71884 -6.39542 24997 ft 449 kts 101°
2026-05-05 19:36 36.71302 -6.35716 24995 ft 449 kts 101°
2026-05-05 19:37 36.70711 -6.31840 24996 ft 463 kts 101°
2026-05-05 19:37 36.70097 -6.27830 24995 ft 479 kts 101°
2026-05-05 19:37 36.69464 -6.23694 24994 ft 493 kts 101°
2026-05-05 19:37 36.68812 -6.19452 24996 ft 505 kts 101°
2026-05-05 19:38 36.68144 -6.15103 24988 ft 515 kts 101°
2026-05-05 19:38 36.67467 -6.10714 24993 ft 516 kts 101°
2026-05-05 19:38 36.66789 -6.06327 24991 ft 516 kts 102°
2026-05-05 19:38 36.66108 -6.01931 24994 ft 516 kts 102°
2026-05-05 19:39 36.65426 -5.97543 24992 ft 516 kts 102°
2026-05-05 19:39 36.64743 -5.93154 24993 ft 516 kts 102°
2026-05-05 19:39 36.64057 -5.88764 24992 ft 517 kts 102°
2026-05-05 19:39 36.63369 -5.84373 24990 ft 516 kts 102°
2026-05-05 19:40 36.62680 -5.79986 24994 ft 517 kts 102°
2026-05-05 19:40 36.61991 -5.75604 24995 ft 517 kts 102°
2026-05-05 19:40 36.61301 -5.71237 24924 ft 510 kts 102°
2026-05-05 19:40 36.60624 -5.66953 24670 ft 499 kts 102°
2026-05-05 19:41 36.59956 -5.62738 24038 ft 495 kts 102°
2026-05-05 19:41 36.59301 -5.58618 23358 ft 489 kts 102°
2026-05-05 19:41 36.58643 -5.54494 22570 ft 483 kts 102°
2026-05-05 19:41 36.57994 -5.50425 21888 ft 476 kts 102°
2026-05-05 19:42 36.57350 -5.46408 21277 ft 473 kts 102°
2026-05-05 19:42 36.56699 -5.42348 20651 ft 471 kts 102°
2026-05-05 19:42 36.55806 -5.38520 20180 ft 464 kts 114°
2026-05-05 19:42 36.54302 -5.35011 19795 ft 459 kts 126°
2026-05-05 19:43 36.52267 -5.31990 19339 ft 452 kts 138°
2026-05-05 19:43 36.49967 -5.29360 18751 ft 447 kts 140°
2026-05-05 19:43 36.47685 -5.26755 17779 ft 448 kts 140°
2026-05-05 19:43 36.45387 -5.24120 16730 ft 450 kts 139°
2026-05-05 19:44 36.43247 -5.21659 16108 ft 446 kts 139°
2026-05-05 19:44 36.40970 -5.19040 15431 ft 445 kts 139°
2026-05-05 19:44 36.38709 -5.16440 14742 ft 439 kts 139°
2026-05-05 19:44 36.36482 -5.13879 14023 ft 434 kts 139°
2026-05-05 19:45 36.34280 -5.11351 13220 ft 429 kts 139°
2026-05-05 19:45 36.32109 -5.08862 12512 ft 423 kts 139°
2026-05-05 19:45 36.29977 -5.06419 11973 ft 408 kts 139°
2026-05-05 19:45 36.27958 -5.04102 11640 ft 384 kts 140°
2026-05-05 19:46 36.26017 -5.01879 11103 ft 378 kts 140°
2026-05-05 19:46 36.24094 -4.99682 10577 ft 373 kts 140°
2026-05-05 19:46 36.22204 -4.97579 10391 ft 355 kts 146°
2026-05-05 19:46 36.20118 -4.96195 10131 ft 329 kts 165°
2026-05-05 19:47 36.17924 -4.95733 9581 ft 315 kts 184°
2026-05-05 19:47 36.15795 -4.96128 8816 ft 308 kts 201°
2026-05-05 19:47 36.13897 -4.97281 8062 ft 302 kts 218°
2026-05-05 19:47 36.12368 -4.99045 7169 ft 303 kts 233°
2026-05-05 19:48 36.11297 -5.01335 5996 ft 315 kts 250°
2026-05-05 19:48 36.10830 -5.04024 4761 ft 326 kts 268°
2026-05-05 19:48 36.11058 -5.06822 3634 ft 330 kts 283°
2026-05-05 19:48 36.11499 -5.09614 2598 ft 331 kts 283°
2026-05-05 19:49 36.11923 -5.12345 2125 ft 312 kts 282°
2026-05-05 19:49 36.12181 -5.14045 1982 ft 296 kts 282°
2026-05-05 19:49 36.12663 -5.17226 1697 ft 267 kts 281°
2026-05-05 19:49 36.12987 -5.19403 1532 ft 247 kts 281°
2026-05-05 19:50 36.13280 -5.21399 1496 ft 224 kts 281°
2026-05-05 19:50 36.13545 -5.23194 1489 ft 200 kts 281°
2026-05-05 19:50 36.13827 -5.24771 1494 ft 177 kts 289°
2026-05-05 19:50 36.14208 -5.26093 1510 ft 147 kts 290°
2026-05-05 19:51 36.14518 -5.27160 1490 ft 118 kts 290°
2026-05-05 19:51 36.14796 -5.28136 1494 ft 121 kts 290°
2026-05-05 19:51 36.15038 -5.29106 1404 ft 116 kts 283°
2026-05-05 19:51 36.15144 -5.30080 1155 ft 114 kts 277°
2026-05-05 19:52 36.15211 -5.31073 779 ft 118 kts 273°
2026-05-05 19:52 36.15237 -5.32090 436 ft 117 kts 268°
2026-05-05 19:52 36.15202 -5.33035 222 ft 108 kts 266°
2026-05-05 19:52 36.15157 -5.33984 70 ft 119 kts 267°
2026-05-05 19:53 36.15124 -5.34942 21 ft 92 kts 267°
2026-05-05 19:53 36.15109 -5.35383 21 ft 28 kts 268°
2026-05-05 19:53 36.15101 -5.35630 19 ft 28 kts 269°
2026-05-05 19:53 36.15075 -5.35843 20 ft 19 kts 230°
2026-05-05 19:54 36.15045 -5.35915 19 ft 0 kts 300°
2026-05-05 19:54 36.15048 -5.35920 19 ft 3 kts 301°
2026-05-05 19:55 36.15085 -5.35931 18 ft 9 kts 39°
2026-05-05 19:55 36.15096 -5.35813 19 ft 19 kts 90°
2026-05-05 19:55 36.15101 -5.35619 19 ft 25 kts 87°
2026-05-05 19:55 36.15110 -5.35390 21 ft 28 kts 87°